441  
ASUS41 KCLE 231212  
RWRCLE  
OHIO REGIONAL WEATHER ROUNDUP  
NATIONAL WEATHER SERVICE WILMINGTON, OH  
800 AM EDT TUE OCT 23 2018  
 
NOTE: "FAIR" INDICATES FEW OR NO CLOUDS BELOW 12,000 FEET WITH NO  
SIGNIFICANT WEATHER AND/OR S TO VISIBILITY
.  
 
OHZ001>008-015>018-024>027-034-035-043-044-231300-  
NORTHWEST OHIO  
 
CITY SKY/WX TMP DP RH WIND PRES REMARKS
 
DEFIANCE FAIR 42 35 76 W8 30.10R  
FINDLAY FAIR 42 36 79 W9 30.07R  
TOLEDO EXPRESS FAIR 43 36 76 W9 30.07R  
TOLEDO EXEC FAIR 42 37 82 NW10 30.07R  
LIMA FAIR 41 35 79 W8 30.09R  

 
 
OHZ009>014-019>023-028>033-038-089-231300-  
NORTHEAST OHIO  
 
CITY SKY/WX TMP DP RH WIND PRES REMARKS
 
CLE-HOPKINS FAIR 43 39 86 SW9 30.03R  
CLE-LAKEFRONT FAIR 46 39 76 SW13 29.99R  
CUY CO. ARPT PTCLDY 43 39 87 SW12 29.99R  
LORAIN-ELYRIA FAIR 42 34 73 W12 30.03R  
ASHTABULA FAIR 42 40 92 SW6 29.97R  
AKRON-CANTON FAIR 43 37 79 W8 30.03R  
WOOSTER FAIR 40 38 93 W9 30.04R  
MANSFIELD FAIR 44 38 79 W12 30.04R  
YOUNGSTOWN FAIR 43 38 82 SW12 29.99R  

 
 
OHZ042-051>053-060>062-070>072-077>081-231300-  
SOUTHWEST OHIO  
 
CITY SKY/WX TMP DP RH WIND PRES REMARKS
 
CINC-COVINGTON FAIR 43 37 79 SW6 30.15S  
CINC-LUNKEN FAIR 36 35 96 CALM 30.17R  
HAMILTON FAIR 32 29 88 CALM 30.16R  
DAYTON FAIR 44 37 76 W12 30.13R  
WRIGHT-PAT AFB FAIR 38 34 84 S3 30.12R  
DAYTON GENERAL FAIR 44 36 73 W5 30.13R  
WILMINGTON FAIR 42 35 76 W8 30.13R  

 
 
OHZ036-037-039>041-045>050-054>059-063>069-073>076-082>088-231300-  
CENTRAL AND SOUTHEAST OHIO  
 
CITY SKY/WX TMP DP RH WIND PRES REMARKS
 
COLUMBUS FAIR 41 35 79 S3 30.09R  
OSU AIRPORT FAIR 42 36 79 W8 30.09R  
BOLTON FIELD CLEAR 43 36 75 W9 30.11R  
RICKENBACK AFB FAIR 37 34 87 SW8 30.10R  
NEWARK FAIR 39 35 86 SW3 30.08S  
MARION FAIR 43 38 82 W8 30.08R  
LANCASTER FAIR 44 37 76 W8 30.10R  
ZANESVILLE FAIR 41 34 76 S5 30.08S  
NEW PHILLY FAIR 44 35 70 SW6 30.06S  

 
 
 
CLICK HERE TO GO TO PREVIOUS BULLETINS.

The Nexlab OH Page
The Nexlab PA Page Main Text Page